Eureka, NV

9:34 AM PST on February 13, 2016 (GMT -0800)
Eureka

Weather History for KP68 - December, 2013

Change the Weather History Date:

Sunday, December 29, 2013

  Actual Average Record
Temperature  
Mean Temperature 21 °F 23 °F  
Max Temperature 37 °F 36 °F 56 °F (2011)
Min Temperature 4 °F 9 °F -26 °F (1988)
Degree Days  
Heating Degree Days 44 42  
Month to date heating degree days 1269 1165  
Since 1 July heating degree days 2880 2924  
Cooling Degree Days 0 0  
Month to date cooling degree days 0 0  
Year to date cooling degree days 585 288  
Moisture  
Dew Point 9 °F    
Average Humidity 61    
Maximum Humidity 84    
Minimum Humidity 38    
Precipitation  
Precipitation 0.00 in 0.02 in 0.19 in (1981)
Month to date precipitation 1.07 0.57  
Year to date precipitation 8.54 8.96  
Sea Level Pressure  
Sea Level Pressure 30.45 in    
Wind  
Wind Speed 4 mph (South)    
Max Wind Speed 13 mph    
Max Gust Speed 15 mph    
T = Trace of Precipitation, MM = Missing Value Source: NWS Daily Summary

Daily Weather History Graph

Daily Weather History Graph

Search for Another Location

Airport or City:

Trip Planner

Search our weather history database for the weather conditions in past years. The results will help you decide how hot, cold, wet, or windy it might be!

Date:

Astronomy

Dec. 29, 2013 Rise Set
Actual Time 7:03 AM PST 4:28 PM PST
Civil Twilight 6:33 AM PST 4:58 PM PST
Nautical Twilight 5:59 AM PST 5:32 PM PST
Astronomical Twilight 5:27 AM PST 6:05 PM PST
Moon 3:52 AM PST (12/29) 2:10 PM PST (12/29)
Length of Visible Light 10h 25m
Length of Day
9h 24m
Waning Crescent, 10% of the Moon is Illuminated
Dec 29
Waning Crescent
Jan 1
New
Jan 7
First Quarter
Jan 15
Full
Jan 23
Last Quarter

Hourly Weather History & Observations

Time (PST) Temp. Windchill Dew Point Humidity Pressure Visibility Wind Dir Wind Speed Gust Speed Precip Events Conditions
12:53 AM 10.0 °F 1.8 °F 5.0 °F 80% 30.38 in - SSW 4.6 mph - N/A   Unknown
1:53 AM 9.0 °F -0.9 °F 5.0 °F 84% 30.38 in - SSW 5.8 mph - N/A   Unknown
2:53 AM 9.0 °F 2.4 °F 3.0 °F 77% 30.42 in - SSE 3.5 mph - N/A   Unknown
3:53 AM 8.1 °F -0.5 °F 3.9 °F 83% 30.43 in - SSW 4.6 mph - N/A   Unknown
4:53 AM 9.0 °F -2.2 °F 3.9 °F 80% 30.46 in - South 6.9 mph - N/A   Unknown
5:53 AM 7.0 °F -3.3 °F 1.9 °F 80% 30.49 in - South 5.8 mph - N/A   Unknown
6:53 AM 8.1 °F -5.3 °F 3.9 °F 83% 30.51 in - SSW 9.2 mph - N/A   Unknown
7:53 AM 12.0 °F 1.5 °F 8.1 °F 84% 30.52 in - SSW 6.9 mph - N/A   Unknown
8:53 AM 17.1 °F 6.6 °F 12.0 °F 81% 30.53 in - SSW 8.1 mph - N/A   Unknown
9:53 AM 26.1 °F - 15.1 °F 63% 30.49 in - Calm Calm - N/A   Unknown
10:53 AM 28.9 °F - 15.1 °F 56% 30.47 in - Calm Calm - N/A   Unknown
11:53 AM 33.1 °F - 15.1 °F 48% 30.44 in - Calm Calm - N/A   Unknown
12:53 PM 33.1 °F - 15.1 °F 48% 30.42 in - Calm Calm - N/A   Unknown
1:53 PM 36.0 °F - 12.0 °F 37% 30.40 in - Calm Calm - N/A   Unknown
2:53 PM 34.0 °F 31.0 °F 12.9 °F 42% 30.40 in - ENE 3.5 mph - N/A   Unknown
3:53 PM 33.1 °F - 10.0 °F 38% 30.40 in - Calm Calm - N/A   Unknown
4:53 PM 24.1 °F - 12.9 °F 62% 30.43 in - Calm Calm - N/A   Unknown
5:53 PM 18.0 °F - 9.0 °F 68% 30.49 in - Calm Calm - N/A   Unknown
6:53 PM 15.1 °F 7.7 °F 9.0 °F 77% 30.51 in - South 4.6 mph - N/A   Unknown
7:53 PM 15.1 °F 7.7 °F 8.1 °F 74% 30.49 in - SSW 4.6 mph - N/A   Unknown
8:53 PM 15.1 °F 5.2 °F 6.1 °F 68% 30.48 in - South 6.9 mph - N/A   Unknown
9:53 PM 15.1 °F 4.2 °F 7.0 °F 70% 30.44 in - SSW 8.1 mph - N/A   Unknown
10:53 PM 15.1 °F 4.2 °F 6.1 °F 68% 30.42 in - South 8.1 mph - N/A   Unknown
11:53 PM 17.1 °F 5.8 °F 9.0 °F 71% 30.40 in - SSW 9.2 mph - N/A   Unknown